TimeEST,TemperatureF,Dew PointF,Humidity,Sea Level PressureIn,VisibilityMPH,Wind Direction,Wind SpeedMPH,Gust SpeedMPH,PrecipitationIn,Events,Conditions,WindDirDegrees,DateUTC
12:15 AM,53.6,41.0,62,30.38,10.0,Calm,Calm,-,N/A,,Scattered Clouds,0,2012-11-12 05:15:00
12:35 AM,53.6,41.0,62,30.37,10.0,Calm,Calm,-,N/A,,Scattered Clouds,0,2012-11-12 05:35:00
1:15 AM,53.6,41.0,62,30.36,10.0,SSE,3.5,-,N/A,,Overcast,160,2012-11-12 06:15:00
1:55 AM,53.6,42.8,67,30.35,10.0,South,6.9,-,N/A,,Overcast,180,2012-11-12 06:55:00
2:15 AM,55.4,42.8,63,30.35,10.0,South,10.4,-,N/A,,Overcast,170,2012-11-12 07:15:00
2:55 AM,55.4,42.8,63,30.35,10.0,SSE,6.9,-,N/A,,Overcast,160,2012-11-12 07:55:00
3:15 AM,55.4,42.8,63,30.34,10.0,South,8.1,-,N/A,,Overcast,190,2012-11-12 08:15:00
3:35 AM,55.4,42.8,63,30.34,10.0,South,5.8,-,N/A,,Overcast,170,2012-11-12 08:35:00
3:55 AM,55.4,42.8,63,30.33,10.0,South,6.9,-,N/A,,Overcast,180,2012-11-12 08:55:00
4:15 AM,55.4,42.8,63,30.33,10.0,South,10.4,-,N/A,,Overcast,180,2012-11-12 09:15:00
4:35 AM,55.4,42.8,63,30.33,10.0,South,5.8,-,N/A,,Overcast,190,2012-11-12 09:35:00
4:55 AM,55.4,42.8,63,30.33,10.0,South,6.9,-,N/A,,Overcast,170,2012-11-12 09:55:00
5:15 AM,55.4,42.8,63,30.33,10.0,South,6.9,-,N/A,,Overcast,180,2012-11-12 10:15:00
5:35 AM,55.4,42.8,63,30.32,10.0,South,4.6,16.1,N/A,,Overcast,190,2012-11-12 10:35:00
5:55 AM,55.4,42.8,63,30.32,10.0,South,4.6,-,N/A,,Overcast,170,2012-11-12 10:55:00
6:15 AM,55.4,42.8,63,30.31,10.0,South,10.4,16.1,N/A,,Overcast,190,2012-11-12 11:15:00
6:35 AM,55.4,44.6,67,30.32,10.0,South,5.8,-,N/A,,Overcast,180,2012-11-12 11:35:00
6:55 AM,55.4,42.8,63,30.32,10.0,South,5.8,-,N/A,,Overcast,170,2012-11-12 11:55:00
7:55 AM,55.4,42.8,63,30.32,10.0,SSE,5.8,-,N/A,,Overcast,160,2012-11-12 12:55:00
8:15 AM,55.4,42.8,63,30.31,10.0,South,9.2,-,N/A,,Overcast,170,2012-11-12 13:15:00
8:35 AM,55.4,42.8,63,30.31,10.0,South,9.2,17.3,N/A,,Overcast,180,2012-11-12 13:35:00
8:55 AM,55.4,42.8,63,30.31,10.0,South,10.4,18.4,N/A,,Overcast,190,2012-11-12 13:55:00
9:15 AM,55.4,42.8,63,30.31,10.0,South,10.4,18.4,N/A,,Overcast,180,2012-11-12 14:15:00
9:35 AM,55.4,44.6,67,30.32,10.0,South,10.4,17.3,N/A,,Overcast,190,2012-11-12 14:35:00
9:55 AM,57.2,44.6,63,30.32,10.0,South,9.2,-,N/A,,Overcast,180,2012-11-12 14:55:00
10:15 AM,55.4,44.6,67,30.32,10.0,South,9.2,-,N/A,,Overcast,190,2012-11-12 15:15:00
10:55 AM,55.4,44.6,67,30.32,10.0,South,10.4,20.7,N/A,,Overcast,190,2012-11-12 15:55:00
11:15 AM,57.2,44.6,63,30.31,10.0,South,9.2,-,N/A,,Overcast,180,2012-11-12 16:15:00
11:35 AM,59.0,44.6,59,30.29,10.0,South,9.2,-,N/A,,Overcast,180,2012-11-12 16:35:00
11:55 AM,59.0,44.6,59,30.28,10.0,SSW,6.9,-,N/A,,Overcast,200,2012-11-12 16:55:00
12:15 PM,57.2,44.6,63,30.26,10.0,SSW,15.0,18.4,N/A,,Overcast,200,2012-11-12 17:15:00
12:35 PM,57.2,44.6,63,30.24,10.0,South,8.1,-,N/A,,Overcast,190,2012-11-12 17:35:00
12:55 PM,57.2,44.6,63,30.22,10.0,South,8.1,-,N/A,,Overcast,170,2012-11-12 17:55:00
1:15 PM,59.0,46.4,63,30.22,10.0,South,8.1,16.1,N/A,,Overcast,180,2012-11-12 18:15:00
1:35 PM,59.0,44.6,59,30.22,10.0,SSW,10.4,25.3,N/A,,Overcast,200,2012-11-12 18:35:00
1:55 PM,59.0,44.6,59,30.21,10.0,South,9.2,-,N/A,,Overcast,190,2012-11-12 18:55:00
2:15 PM,59.0,44.6,59,30.20,10.0,South,6.9,-,N/A,,Overcast,190,2012-11-12 19:15:00
2:35 PM,59.0,44.6,59,30.19,10.0,SSW,9.2,18.4,N/A,,Mostly Cloudy,200,2012-11-12 19:35:00
2:55 PM,59.0,42.8,55,30.19,10.0,South,13.8,18.4,N/A,,Mostly Cloudy,190,2012-11-12 19:55:00
3:35 PM,59.0,42.8,55,30.18,10.0,South,12.7,19.6,N/A,,Scattered Clouds,190,2012-11-12 20:35:00
3:55 PM,59.0,42.8,55,30.17,10.0,South,12.7,20.7,N/A,,Scattered Clouds,190,2012-11-12 20:55:00
4:15 PM,59.0,42.8,55,30.17,10.0,South,16.1,24.2,N/A,,Scattered Clouds,190,2012-11-12 21:15:00
4:35 PM,57.2,44.6,63,30.17,10.0,SSW,13.8,20.7,N/A,,Scattered Clouds,200,2012-11-12 21:35:00
4:55 PM,57.2,44.6,63,30.17,10.0,South,9.2,-,N/A,,Mostly Cloudy,190,2012-11-12 21:55:00
5:15 PM,57.2,44.6,63,30.17,10.0,SSW,11.5,-,N/A,Rain,Light Rain,200,2012-11-12 22:15:00
5:35 PM,55.4,46.4,72,30.18,10.0,South,8.1,-,N/A,Rain,Light Rain,190,2012-11-12 22:35:00
5:55 PM,55.4,46.4,72,30.18,10.0,SSW,6.9,-,N/A,Rain,Light Rain,200,2012-11-12 22:55:00
6:15 PM,53.6,46.4,77,30.19,10.0,SW,5.8,-,0.02,Rain,Light Rain,220,2012-11-12 23:15:00
6:35 PM,53.6,46.4,77,30.19,10.0,SSW,4.6,-,0.02,Rain,Light Rain,210,2012-11-12 23:35:00
6:55 PM,53.6,48.2,82,30.19,10.0,SSW,3.5,-,0.02,Rain,Light Rain,210,2012-11-12 23:55:00
7:15 PM,53.6,48.2,82,30.18,10.0,SSW,3.5,-,N/A,Rain,Rain,200,2012-11-13 00:15:00
7:55 PM,44.6,41.0,87,30.21,10.0,WNW,3.5,-,0.07,Rain,Rain,290,2012-11-13 00:55:00
8:15 PM,44.6,41.0,87,30.23,10.0,Calm,Calm,-,0.01,,Drizzle,0,2012-11-13 01:15:00
8:35 PM,44.6,42.8,93,30.24,5.0,West,4.6,-,0.02,Rain,Light Rain,260,2012-11-13 01:35:00
8:55 PM,42.8,39.2,87,30.24,7.0,WNW,9.2,-,0.04,Rain,Light Rain,290,2012-11-13 01:55:00
9:15 PM,42.8,39.2,87,30.24,7.0,Calm,Calm,-,0.01,,Light Drizzle,0,2012-11-13 02:15:00
9:35 PM,42.8,39.2,87,30.26,7.0,West,4.6,-,0.01,Rain,Rain,270,2012-11-13 02:35:00
9:55 PM,42.8,37.4,81,30.27,5.0,WNW,8.1,-,0.02,,Drizzle,300,2012-11-13 02:55:00
10:15 PM,41.0,33.8,76,30.29,7.0,NW,9.2,-,N/A,,Overcast,310,2012-11-13 03:15:00
10:35 PM,39.2,33.8,81,30.29,10.0,NW,5.8,-,N/A,,Overcast,320,2012-11-13 03:35:00
10:55 PM,37.4,33.8,87,30.31,7.0,West,3.5,-,N/A,,Light Drizzle,280,2012-11-13 03:55:00
11:15 PM,37.4,33.8,87,30.30,10.0,North,4.6,-,0.01,Rain,Rain,0,2012-11-13 04:15:00
11:35 PM,37.4,33.8,87,30.31,10.0,Calm,Calm,-,0.01,Rain,Rain,0,2012-11-13 04:35:00
11:55 PM,37.4,33.8,87,30.30,7.0,Calm,Calm,-,0.03,Rain,Light Rain,0,2012-11-13 04:55:00